[[{"header":{"parameterUnit":"m.s-1","parameterCategory":1,"la1":30.2991,"la2":30.254,"lo1":-89.0895,"lo2":-89.0444,"dy":0.0017,"dx":0.0017,"nx":28,"ny":28,"refTime":"2025-01-06T09:00:00:Z","depth":0,"parameterNumber":2,"parameterNumberName":"U-component_of_WINDS"},"data":[0,0,0,0,0,0,0,0,0,0,0,0,0,0,0,0,0,0,0,0,0,0,0,0,0,0,0,0,0,0,0,0,0,0,0,0,0,0,0,0,0,0,0,0,0,0,0,0,0,0,0,0,0,0,0,0,0,0,0.2323,0.2323,0,0.231,0.231,0.2309,0.2302,0.2302,0.2302,0.2302,0.2289,0.2288,0.2288,0,0,0,0,0,0,0,0,0,0,0,0,0,0.2342,0.2342,0.2323,0.2323,0.2323,0.231,0.231,0.2309,0.2302,0.2302,0.2302,0.2302,0.2289,0.2288,0.2288,0,0,0,0,0,0,0,0,0,0,0,0,0,0.2332,0.2342,0.2323,0.2318,0.2317,0.231,0.231,0.2309,0.2302,0.2302,0.2302,0.2302,0.2289,0.2288,0.2288,0.2285,0,0,0.2286,0.2286,0,0,0,0,0,0,0,0,0.2332,0.2331,0.2319,0.2318,0.2317,0.2308,0.2311,0.2301,0.2302,0.2308,0.2302,0.2302,0.2295,0.2294,0.2291,0.2284,0.2284,0.2286,0.2286,0.2285,0.2285,0,0,0,0,0,0,0,0.2333,0.2332,0.2318,0.2318,0.2318,0.2316,0.2314,0.2309,0.2302,0.2307,0.2307,0.2306,0.2295,0.2292,0.2291,0.2283,0.2286,0.2286,0.2285,0.2285,0.2274,0.2274,0,0,0,0,0,0,0.2335,0.2332,0.2318,0.2317,0.2325,0.2316,0.2314,0.2311,0.2302,0.23,0.2306,0.2305,0.2293,0.2292,0.2291,0.2287,0.2286,0.2285,0.2285,0.2274,0.2274,0.2274,0,0,0,0,0,0,0.2335,0.2334,0.2319,0.2325,0.2323,0.2315,0.2312,0.2311,0.2308,0.23,0.2299,0.2304,0.2293,0.2291,0.2286,0.2286,0.2285,0.2284,0.2274,0.2274,0.2274,0.2279,0,0,0,0,0,0,0.2336,0.2334,0.2332,0.2325,0.2322,0.2315,0.2312,0.231,0.2307,0.2307,0.2299,0.2297,0.2293,0.2287,0.2286,0.2286,0.2284,0.2274,0.2274,0.2274,0.2279,0.228,0.228,0,0,0,0,0,0.2337,0.2334,0.2332,0.2331,0.2321,0.2315,0.2313,0.2308,0.2307,0.2306,0.2301,0.2298,0.2287,0.2287,0.2285,0.2285,0.2274,0.2274,0.2274,0.2279,0.2279,0.228,0,0,0,0,0,0,0.2342,0.2333,0.2331,0.2326,0.2321,0.2314,0.2312,0.2309,0.2304,0.2304,0.2297,0.2296,0.2291,0.2288,0.2288,0.2282,0.228,0.228,0.2284,0.2285,0.2285,0.2286,0.2283,0,0,0,0,0,0.2342,0.2338,0.2331,0.2327,0.2325,0.2319,0.2316,0.2313,0.2307,0.2305,0.23,0.2295,0.229,0.2287,0.2283,0.2279,0.2277,0.2278,0.2278,0.2278,0.2278,0.2276,0.2277,0.2274,0.2274,0.2274,0,0,0.2343,0.2338,0.2336,0.2328,0.2324,0.232,0.2317,0.2313,0.231,0.2304,0.23,0.2296,0.229,0.2286,0.2283,0.2282,0.2279,0.2278,0.2279,0.2278,0.2276,0.2277,0.2277,0.2274,0.2274,0.2274,0,0,0.2343,0.2339,0.2336,0.2332,0.2326,0.2322,0.2321,0.2314,0.2311,0.2307,0.2303,0.2299,0.2291,0.2288,0.2284,0.2284,0.2281,0.2283,0.2285,0.2283,0.2283,0.2284,0.2284,0.2284,0.2283,0.2283,0.2283,0,0.2345,0.2339,0.2334,0.2331,0.2328,0.2323,0.232,0.2316,0.2309,0.2307,0.2306,0.2297,0.2292,0.2287,0.2288,0.2285,0.2284,0.2284,0.2284,0.2284,0.2284,0.2284,0.2284,0.2283,0.2283,0.2283,0.2283,0,0.2342,0.2338,0.2336,0.233,0.2327,0.2323,0.2318,0.2316,0.2313,0.2309,0.2305,0.2299,0.2294,0.2293,0.229,0.2288,0.2287,0.2285,0.2283,0.2285,0.2285,0.2285,0.2284,0.2283,0.2283,0.2283,0,0,0.2343,0.2335,0.2335,0.2332,0.2326,0.2323,0.232,0.2315,0.2313,0.2308,0.2305,0.2299,0.2298,0.2294,0.2291,0.229,0.229,0.2288,0.2288,0.2289,0.2288,0.229,0.229,0.2289,0.2289,0.2289,0.2289,0,0.2343,0.2336,0.2333,0.2328,0.2325,0.2321,0.2318,0.2314,0.2311,0.2308,0.2304,0.23,0.2298,0.2296,0.2295,0.2291,0.229,0.2291,0.2286,0.2286,0.2287,0.229,0.2291,0.2292,0.2289,0.2289,0.2289,0,0.234,0.2336,0.2332,0.2327,0.2325,0.2323,0.2318,0.2315,0.2311,0.2309,0.2305,0.2302,0.2299,0.2298,0.2293,0.2294,0.2292,0.229,0.229,0.2289,0.2287,0.2289,0.2292,0.2292,0.2289,0.2289,0.2289,0,0.2342,0.2336,0.2332,0.233,0.2324,0.2323,0.232,0.2316,0.2313,0.2309,0.2308,0.2304,0.2301,0.2298,0.2294,0.2294,0.2291,0.2289,0.2289,0.2289,0.2288,0.2288,0.229,0.2287,0.2287,0.2287,0.2287,0,0.2341,0.2339,0.2333,0.2331,0.2328,0.2324,0.2322,0.2319,0.2315,0.2312,0.2309,0.2307,0.2301,0.2299,0.2296,0.2293,0.2292,0.229,0.2289,0.229,0.229,0.2288,0.2288,0.2287,0.2287,0.2287,0.2287,0,0.2342,0.2339,0.2335,0.233,0.2329,0.2327,0.2322,0.232,0.2317,0.2314,0.2313,0.2309,0.2305,0.2301,0.2296,0.2294,0.2292,0.229,0.2293,0.2292,0.2293,0.2293,0.2294,0.2294,0.2291,0.2291,0.2291,0,0.2342,0.234,0.2335,0.2333,0.2331,0.2328,0.2326,0.2322,0.232,0.2315,0.2314,0.231,0.2307,0.2302,0.2298,0.2295,0.2293,0.2294,0.2292,0.2294,0.2293,0.2293,0.2293,0.2294,0.2294,0.2294,0.2294,0,0.2342,0.234,0.2337,0.2334,0.2331,0.2328,0.2325,0.2324,0.232,0.2318,0.2314,0.2312,0.2308,0.2304,0.23,0.2298,0.2295,0.2295,0.2294,0.2295,0.2297,0.2296,0.2294,0.2294,0.2294,0.2294,0.2294,0.2294,0.2342,0.234,0.2337,0.2334,0.2331,0.2329,0.2327,0.2324,0.2321,0.2317,0.2316,0.2312,0.2309,0.2304,0.2301,0.2299,0.2298,0.2298,0.2297,0.2297,0.2298,0.2298,0.2298,0.2298,0.2298,0.2298,0.2298,0,0.2342,0.2339,0.2337,0.2333,0.2331,0.2329,0.2326,0.2324,0.2322,0.2319,0.2316,0.2313,0.231,0.2306,0.2303,0.2302,0.23,0.2301,0.2301,0.23,0.2299,0.2299,0.2302,0.2302,0.2302,0.2302,0.2302,0.2302,0.2341,0.2338,0.2337,0.2333,0.2331,0.2328,0.2326,0.2324,0.2322,0.2318,0.2316,0.2314,0.2311,0.2307,0.2305,0.2304,0.2303,0.2303,0.2302,0.2301,0.23,0.23,0.23,0.2303,0.2303,0.2304,0.2304,0.2304]},{"header":{"parameterUnit":"m.s-1","parameterCategory":1,"la1":30.2991,"la2":30.254,"lo1":-89.0895,"lo2":-89.0444,"dy":0.0017,"dx":0.0017,"nx":28,"ny":28,"refTime":"2025-01-06T09:00:00:Z","depth":0,"parameterNumber":3,"parameterNumberName":"V-component_of_WINDS"},"data":[0,0,0,0,0,0,0,0,0,0,0,0,0,0,0,0,0,0,0,0,0,0,0,0,0,0,0,0,0,0,0,0,0,0,0,0,0,0,0,0,0,0,0,0,0,0,0,0,0,0,0,0,0,0,0,0,0,0,-4.7118,-4.7119,0,-4.7206,-4.7207,-4.7208,-4.7205,-4.7204,-4.7203,-4.7201,-4.7286,-4.7289,-4.7292,0,0,0,0,0,0,0,0,0,0,0,0,0,-4.6944,-4.6947,-4.7118,-4.7119,-4.7121,-4.7206,-4.7207,-4.7208,-4.7205,-4.7204,-4.7202,-4.7201,-4.7284,-4.7288,-4.7292,0,0,0,0,0,0,0,0,0,0,0,0,0,-4.7024,-4.6948,-4.7118,-4.7129,-4.7131,-4.7206,-4.7207,-4.7209,-4.7205,-4.7204,-4.7202,-4.72,-4.7283,-4.7288,-4.7293,-4.736,0,0,-4.7308,-4.731,0,0,0,0,0,0,0,0,-4.702,-4.7031,-4.7127,-4.7129,-4.7131,-4.7193,-4.7177,-4.7259,-4.7206,-4.7177,-4.7201,-4.7199,-4.7256,-4.7263,-4.7283,-4.7364,-4.7368,-4.7309,-4.7312,-4.7314,-4.7315,0,0,0,0,0,0,0,-4.7014,-4.7027,-4.7153,-4.7128,-4.7131,-4.7129,-4.7138,-4.7192,-4.7225,-4.718,-4.718,-4.719,-4.7257,-4.7278,-4.7285,-4.7369,-4.7309,-4.7313,-4.7316,-4.7318,-4.7511,-4.7513,0,0,0,0,0,0,-4.7007,-4.7022,-4.715,-4.7155,-4.707,-4.7133,-4.7144,-4.7175,-4.7225,-4.7231,-4.7192,-4.719,-4.7271,-4.7279,-4.7288,-4.7371,-4.7314,-4.7319,-4.7322,-4.7509,-4.7511,-4.7513,0,0,0,0,0,0,-4.7003,-4.7019,-4.7146,-4.7089,-4.7105,-4.7138,-4.7173,-4.7177,-4.7199,-4.7234,-4.7239,-4.7208,-4.7269,-4.7281,-4.7343,-4.7374,-4.7321,-4.7326,-4.7506,-4.7509,-4.7512,-4.7537,0,0,0,0,0,0,-4.6998,-4.7017,-4.7044,-4.709,-4.7108,-4.7201,-4.7175,-4.718,-4.7209,-4.7207,-4.7251,-4.7256,-4.7269,-4.7335,-4.7348,-4.738,-4.7329,-4.7503,-4.7508,-4.7511,-4.7534,-4.7541,-4.7547,0,0,0,0,0,-4.6992,-4.7046,-4.7045,-4.7061,-4.7143,-4.7203,-4.7214,-4.7229,-4.7211,-4.7238,-4.726,-4.7255,-4.7369,-4.7342,-4.7356,-4.739,-4.7502,-4.7506,-4.7511,-4.7531,-4.7539,-4.7547,0,0,0,0,0,0,-4.7,-4.7052,-4.7052,-4.7122,-4.7159,-4.7203,-4.7236,-4.7237,-4.7277,-4.7274,-4.7289,-4.7299,-4.7362,-4.7382,-4.7351,-4.7458,-4.7433,-4.744,-4.7443,-4.7451,-4.7458,-4.7452,-4.7334,0,0,0,0,0,-4.701,-4.7057,-4.7099,-4.7156,-4.7175,-4.7203,-4.723,-4.7239,-4.7276,-4.7291,-4.7318,-4.7353,-4.7397,-4.7425,-4.7467,-4.7537,-4.7546,-4.7567,-4.7573,-4.7579,-4.7585,-4.7625,-4.7634,-4.7529,-4.7529,-4.7529,0,0,-4.7031,-4.7065,-4.7093,-4.7159,-4.7188,-4.7235,-4.7216,-4.7265,-4.73,-4.7297,-4.7359,-4.738,-4.742,-4.7487,-4.7517,-4.7505,-4.7617,-4.7585,-4.7589,-4.7592,-4.763,-4.764,-4.7649,-4.7532,-4.7531,-4.7531,0,0,-4.7093,-4.7124,-4.7176,-4.7207,-4.7252,-4.7271,-4.7283,-4.7328,-4.7343,-4.7405,-4.7405,-4.7445,-4.752,-4.755,-4.7574,-4.765,-4.7647,-4.7663,-4.7697,-4.7735,-4.7744,-4.7751,-4.7779,-4.7789,-4.7669,-4.7669,-4.7669,0,-4.7113,-4.7185,-4.7202,-4.7254,-4.7283,-4.7286,-4.7339,-4.7367,-4.7423,-4.7442,-4.7429,-4.7524,-4.7551,-4.7626,-4.7645,-4.7664,-4.7679,-4.7658,-4.7741,-4.7749,-4.7756,-4.7783,-4.7793,-4.7671,-4.7671,-4.7671,-4.7671,0,-4.7207,-4.7257,-4.7294,-4.7351,-4.7385,-4.7436,-4.7461,-4.7492,-4.7498,-4.7518,-4.7581,-4.7615,-4.7664,-4.7682,-4.7688,-4.7758,-4.7749,-4.7738,-4.7713,-4.7768,-4.7793,-4.7804,-4.7674,-4.7673,-4.7672,-4.7672,0,0,-4.7275,-4.7344,-4.7357,-4.7384,-4.7436,-4.7474,-4.7526,-4.7577,-4.7604,-4.7642,-4.7686,-4.775,-4.7742,-4.777,-4.7778,-4.7812,-4.7871,-4.7797,-4.7798,-4.781,-4.7952,-4.796,-4.7971,-4.787,-4.7872,-4.7873,-4.7948,0,-4.7344,-4.7438,-4.7456,-4.7538,-4.7585,-4.7589,-4.7634,-4.767,-4.769,-4.7732,-4.7753,-4.7799,-4.7783,-4.78,-4.7834,-4.7857,-4.79,-4.7852,-4.791,-4.7912,-4.79,-4.7985,-4.7993,-4.8062,-4.7958,-4.796,-4.7961,0,-4.7435,-4.748,-4.7567,-4.7615,-4.7635,-4.7675,-4.7725,-4.7764,-4.7805,-4.7817,-4.785,-4.7856,-4.7909,-4.7882,-4.7955,-4.7922,-4.7947,-4.7962,-4.7965,-4.7971,-4.794,-4.7993,-4.8085,-4.8095,-4.7977,-4.7976,-4.7975,0,-4.7478,-4.7559,-4.7622,-4.7645,-4.7701,-4.773,-4.7754,-4.7794,-4.7824,-4.7866,-4.7886,-4.7933,-4.7959,-4.7994,-4.8012,-4.7991,-4.8085,-4.8059,-4.8096,-4.8096,-4.8115,-4.8114,-4.8213,-4.8131,-4.8131,-4.813,-4.813,0,-4.7552,-4.7605,-4.7642,-4.7681,-4.7741,-4.7761,-4.7819,-4.7843,-4.7879,-4.7921,-4.7927,-4.7966,-4.7988,-4.803,-4.8044,-4.8104,-4.8115,-4.8126,-4.8129,-4.8126,-4.8124,-4.8142,-4.8138,-4.8133,-4.8133,-4.8132,-4.8132,0,-4.7609,-4.7636,-4.7706,-4.7755,-4.7768,-4.781,-4.7851,-4.7889,-4.791,-4.7964,-4.7977,-4.8009,-4.806,-4.8082,-4.8143,-4.8153,-4.8221,-4.822,-4.8208,-4.8209,-4.8246,-4.8242,-4.8359,-4.8376,-4.8283,-4.8283,-4.8284,0,-4.7655,-4.7697,-4.7751,-4.7782,-4.7808,-4.7856,-4.7888,-4.791,-4.7942,-4.7993,-4.8024,-4.8076,-4.8118,-4.8199,-4.8226,-4.8273,-4.8274,-4.8312,-4.8281,-4.8277,-4.8276,-4.8273,-4.8278,-4.8318,-4.8318,-4.8319,-4.832,0,-4.7734,-4.7746,-4.7793,-4.7845,-4.7884,-4.7925,-4.7965,-4.7989,-4.8017,-4.8053,-4.8106,-4.8139,-4.8204,-4.8255,-4.8304,-4.8327,-4.8328,-4.833,-4.8341,-4.8338,-4.833,-4.8336,-4.8224,-4.8327,-4.8326,-4.8325,-4.8325,-4.8325,-4.7787,-4.7825,-4.7871,-4.7923,-4.7956,-4.7994,-4.8033,-4.806,-4.8105,-4.8161,-4.8171,-4.8228,-4.8268,-4.8336,-4.8361,-4.8405,-4.8396,-4.8412,-4.8416,-4.842,-4.8423,-4.8323,-4.8414,-4.8414,-4.8414,-4.8414,-4.8413,0,-4.7867,-4.7898,-4.7946,-4.8004,-4.8045,-4.8045,-4.809,-4.8124,-4.8175,-4.8214,-4.8256,-4.8318,-4.8368,-4.8401,-4.8451,-4.848,-4.8482,-4.8492,-4.8491,-4.8496,-4.8428,-4.8413,-4.849,-4.849,-4.849,-4.849,-4.849,-4.849,-4.7914,-4.7979,-4.7997,-4.8078,-4.8107,-4.8165,-4.8191,-4.8226,-4.8258,-4.8328,-4.837,-4.8392,-4.8429,-4.8482,-4.8528,-4.8536,-4.8554,-4.8566,-4.8573,-4.8509,-4.8501,-4.8493,-4.848,-4.8569,-4.857,-4.8638,-4.8639,-4.8639]}]]